STARLINK-2164, 47750

Orbit data source: Space-Track

STARLINK-2164, 47750 is a payload satellite owned by SpaceX/Seattle (US) in LEO that was launched on Thu, 04 Mar 2021 UTC via an FALCON 9 launch vehicle from the Air Force Eastern Test Range (AFETR). Payload-class satellites include a variety of spacecraft equipped with specific instruments for various scientific and technological missions. These include communications satellites like Starlink; space stations such as the ISS; scientific satellites like the Hubble; Earth observation satellites from companies like Planet Labs, Umbra, and HawkEye 360; GPS; miniature CubeSats for education and research; and military/defense satellites.

Loading next visibility...
Identifier
47750, 2021-017AE
Orbit
LEO
Country
Flag of USUS
Related business
Manufacturer
SpaceX/Seattle
Mission
Operational Commercial Communications
Bus & Motor
STARLINK, Unknown motor
Mass
260 kg wet, ~248 kg dry
Launch date (UTC)
2021-03-04 (5 years ago)
Launch vehicle
FALCON 9
Launch site
Air Force Eastern Test Range (AFETR)
Object type
Payload
Rocket body
Debris
Shape & HBR
Box + 1 Pan, 10.1 m
Radar Cross Section
13.562 m², Large (>1 m²)

Expand to show TLE details & history
Last TLE update: 16 hours ago

TLE from 16 hours ago
0 STARLINK-2164
1 47750U 21017AE  26235.89890947  .00009388  00000-0  31320-3 0  9996
2 47750  53.1583 135.4215 0001274 100.2329 259.8816 15.31772952303616
Epoch: 2026-08-23T21:34Z
TLE epoch observation values (Epoch: 2026-08-23T21:34:25.778Z)
Latitude
-0.00002°
Longitude
-160.37427°
Altitude
471.576 km
Speed
7.631 km/s
True Right ascension
09h 01m 41s
True Declination
0° 00' 00"
Sunlit
Object was in daylight at epoch
Visualization orbit readout
Latitude
Unknown
Longitude
Unknown
Altitude
Unknown
Speed
Unknown
Apparent Right ascension
Unknown
Apparent Declination
Unknown
Sunlit
N/A
Visualization observer readout
Local Sidereal Time
04:20:26
Azimuth
Unknown
Elevation
Unknown
Doppler factor
Unknown
Orbital elements
Apogee altitude
471.652 km
Perigee altitude
469.907 km
Semi-major axis
6,848.916 km
Eccentricity
0.00013
Inclination
53.1583°
RAAN
135.4215°
Arg. of periapsis
100.2329°
True anomaly
259.86723°
Mean anomaly
259.8816°
Eccentric anomaly
259.87441°
Mean motion
3.82922 °/min
Orbital period
94.01 mins
BSTAR
0.0003132
Loading maneuver chart data...
Computing Atmospheric mass density...

Documentation

Showing up to 5 results
|